カタログに戻る

COSMOS 1275 DEB

運用中PO
NORAD 39936·DEBRIS·🇷🇺 Russia

打ち上げ Jun 4, 1981 から Plesetsk Cosmodrome

Loading…

次のパス (今後24時間)

TLE

最新Source: Space-Track

元期: Sep 13, 2026, 09:51 UTC

1 39936U 81053MW  26256.41083494  .00000516  00000-0  39223-3 0  9995
2 39936  83.1480 134.3536 0057559 294.2029  65.3127 13.91251389610924

AllMySatでCOSMOS 1275 DEBをリアルタイム追跡

Download on the App Store